{"data":{"norad_id":54027,"epoch":"2026-05-24T23:42:27.946080Z","epoch_age_seconds":69306,"freshness":"FRESH","line1":"1 54027U 22128B   26144.98782345  .00000000  00000+0  00000+0 0  9994","line2":"2 54027   0.0106   1.6369 0001708  78.4431  29.1280  1.00272565 13683","mean_motion":1.00272565,"eccentricity":0.0001708,"inclination_deg":0.0106,"raan_deg":1.6369,"arg_perigee_deg":78.4431,"mean_anomaly_deg":29.128,"bstar":0,"rev_number":1368,"period_min":1436.0857329221,"perigee_km":35779.174601422,"apogee_km":35793.577999165,"semimajor_km":42164.513300293,"source":"CELESTRAK","updated_at":"2026-05-25T13:38:14.338567Z"}}